Other Public Products
Issued by NWS Grand Forks, ND

Home | Current Version | Previous Version | Graphics & Text | Print | Product List | Glossary On
Versions: 1 2 3 4 5 6 7 8 9 10 11 12 13 14 15 16 17 18 19 20 21 22 23 24 25 26 27 28 29 30 31 32 33 34 35 36 37 38 39 40 41 42 43 44 45 46 47 48 49 50
000
FPUS83 KFGF 111310
OPUFGF
PRAIRIE TO PINES WEATHER ROUNDUP
NATIONAL WEATHER SERVICE EASTERN NORTH DAKOTA/GRAND FORKS ND
800 AM CDT FRI JUL 11 2014

 **SATELLITE DATA USED TO AUGMENT SKY COVER AT AUTOMATED STATIONS**
 *****  WEATHER ACROSS EASTERN NORTH DAKOTA  *****

CITY           SKY/WX    TMP DP  RH WIND       PRES   REMARKS
GRAND FORKS    FOG       65  65 100 SW5       29.83R VSB 1/8
GRAND FORKS AF MOSUNNY   66  66 100 W5        29.83S
GRAND CITY NWS   N/A     66 N/A N/A W2          N/A
BUXTON         NOT AVBL
DEVILS LAKE    SUNNY     70  63  78 N9        29.86R
FARGO          SUNNY     72  68  87 S3        29.82F
WAHPETON ARPT  MOSUNNY   72  66  83 CALM      29.85R
$$

 *****  WEATHER ACROSS CENTRAL AND WESTERN NORTH DAKOTA  *****

CITY           SKY/WX    TMP DP  RH WIND       PRES   REMARKS
JAMESTOWN      FOG       64  64 100 CALM      29.87R VSB 1
BISMARCK       MOSUNNY   67  66  97 NW6       29.91R
MINOT          MOSUNNY   68  59  73 W8        29.94R
MINOT AFB      MOSUNNY   66  64  93 NW10      29.94R
GARRISON         N/A     67  62  84 N9        29.95R
WILLISTON      CLOUDY    65  58  78 N3        30.01R
DICKINSON      PTSUNNY   65  61  87 N12       30.00R
HETTINGER      SUNNY     66  62  87 N17       29.97R
$$

 *****  OTHER OBSERVATIONS NORTHEAST NORTH DAKOTA  *****

CITY           SKY/WX    TMP DP  RH WIND       PRES   REMARKS
WALHALLA         N/A     70  70 100 NW10        N/A
LANGDON        FAIR      66  63  88 NW12G17   29.87R
CAVALIER       FAIR      70  66  88 NW12      29.82R
GRAFTON        FOG       64  64 100 S8        29.82R VSB 1/2
CANDO          FAIR      68  61  77 N12       29.89R
FORT TOTTEN      N/A     68  68  99 N3        29.95
ROLLA          FAIR      66  57  72 NW14      29.92R
RUGBY          FAIR      66  64  94 N5        29.90R
 ***** THE ABOVE OBSERVATIONS ARE NON NWS ARE NOT QUALITY
        CONTROLLED AND MAY MIS-REPORT RAIN FOR SNOW...
$$

 *****  OTHER OBSERVATIONS SOUTHEAST NORTH DAKOTA *****

CITY           SKY/WX    TMP DP  RH WIND       PRES   REMARKS
COOPERSTOWN    NOT AVBL
VALLEY CITY    FOG       64  64 100 CALM      29.86S VSB 1/4
OAKES          NOT AVBL
GWINNER        MOSUNNY   73  73 100 W8        29.86S
SHEYENNE NWR     N/A     73  71  93 W2        29.95S
BUFFALO        NOT AVBL
WYNDMERE       NOT AVBL
 ***** THE ABOVE OBSERVATIONS ARE NON NWS ARE NOT QUALITY
       CONTROLLED AND MAY MIS-REPORT RAIN FOR SNOW...
$$

  *****  WEATHER ACROSS NORTHERN MINNESOTA  *****

CITY           SKY/WX    TMP DP  RH WIND       PRES   REMARKS
FLAG ISLAND    CLOUDY    70  64  83 S3        29.80F FOG
WARROAD        CLOUDY    70  66  88 S5        29.82F
ROSEAU         SUNNY     70  64  83 S12       29.81F
HALLOCK        SUNNY     70  66  88 S5        29.81R
THF RVR FALLS    N/A    N/A N/A N/A MISG        N/A
HALSTAD          N/A     71  68  89 CALM        N/A
FOSSTON        CLOUDY    68  64  88 S8        29.85F
BAUDETTE       CLOUDY    69  66  90 S8        29.84S
WASKISH        NOT AVBL
CROOKSTON      SUNNY     70  68  94 SW8       29.84S
$$
  *****  WEATHER ACROSS CENTRAL AND WEST MINNESOTA  *****

CITY           SKY/WX    TMP DP  RH WIND       PRES   REMARKS
BEMIDJI        PTSUNNY   67  65  91 S5        29.86F
PARK RAPIDS    CLOUDY    66  65  96 S6        29.88R
WADENA         CLOUDY    66  64  94 SE6       29.88R
DETROIT LAKES  PTSUNNY   68  66  94 S6        29.88R
MOORHEAD       NOT AVBL
FERGUS FALLS   CLOUDY    72  68  88 S7        29.85R
ELBOW LAKE     CLOUDY    72  68  88 S8        29.87R
MORRIS MN      SUNNY     72  70  94 SE6       29.87R
STAPLES        CLOUDY    64  64 100 SE7       29.89S
WHEATON        MOSUNNY   72  66  83 CALM      29.87R
$$
  *****  WEATHER ELSEWHERE ACROSS MINNESOTA  *****

CITY           SKY/WX    TMP DP  RH WIND       PRES   REMARKS
DULUTH         CLOUDY    65  62  90 SW10      29.94S
INTRNTL FALLS  CLOUDY    68  64  87 S9        29.85F
ELY            CLOUDY    63  61  94 S9        29.92F
CLOQUET        CLOUDY    64  63  94 S7        29.94S
BRAINERD       CLOUDY    71  65  81 S10       29.91R
HIBBING        CLOUDY    66  62  87 VRB5      29.91S
ALEXANDRIA     CLOUDY    70  66  87 S10       29.91S
SAINT CLOUD    LGT RAIN  66  64  94 SE7       29.94F FOG
MINNEAPOLIS    LGT RAIN  68  63  84 S5        30.00R
$$

  *****  WEATHER ACROSS SOUTH DAKOTA  *****

CITY           SKY/WX    TMP DP  RH WIND       PRES   REMARKS
SIOUX FALLS    PTSUNNY   71  67  87 SW6       29.90F
BROOKINGS      NOT AVBL
WATERTOWN      SUNNY     72  67  84 S12       29.88S
HURON          SUNNY     74  67  78 S9        29.85R
SISSETON         N/A     75  69  81 W15       29.83R
ABERDEEN       SUNNY     70  68  93 S3        29.85R
MITCHELL       MOSUNNY   73  69  87 S8        29.87R
PIERRE         SUNNY     72  66  81 W6        29.86S
MOBRIDGE       SUNNY     69  66  90 CALM      29.85S
RAPID CITY     MOSUNNY   71  63  75 NW6       29.97R
$$

  *****  SOME WEATHER IN NEARBY STATES *****

CITY           SKY/WX    TMP DP  RH WIND       PRES   REMARKS
GLASGOW MT     LGT RAIN  61  59  93 W10       30.10R
GREAT FALLS MT CLOUDY    60  54  80 N14       30.17R
CHEYENNE WY    PTSUNNY   66  53  63 SW7       30.17S
SCOTTSBLUFF NE PTSUNNY   66  63  90 CALM      30.04R
OMAHA NE       CLOUDY    71  65  81 NE6       30.02R
DES MOINES IA  PTSUNNY   70  60  70 S14       30.08R
DAVENPORT IA   PTSUNNY   68  57  68 S8        30.18S
CHICAGO IL     MOSUNNY   68  53  58 S3        30.22R
EAU CLAIRE WI  CLOUDY    66  60  81 S9        30.04F
LA CROSSE WI   CLOUDY    70  59  68 S14       30.08F
$$

  *****  SOME NATIONAL WEATHER *****

CITY           SKY/WX    TMP DP  RH WIND       PRES   REMARKS
LA GUARDIA NY  MOSUNNY   75  53  46 NE8       30.20R
RALEIGH NC     CLOUDY    73  68  84 NE5       30.19R
ATLANTA GA     PTSUNNY   77  71  82 CALM      30.16R
NEW ORLEANS LA MOSUNNY   82  76  81 NW6       30.14R
OKLAHOMA CITY  MOSUNNY   75  65  70 S8        30.08R
ALBUQUERQUE NM MOSUNNY   73  54  51 N6        30.18R
SALT LAKE CITY CLOUDY    71  58  63 S10       30.06R
LOS ANGELES CA CLOUDY    67  58  72 W7        29.97S
BOISE ID       CLEAR     69  46  43 S6        29.91R
SEATTLE WA     CLEAR     61  53  75 VRB7      29.97R
$$

*** WEATHER ACROSS MANITOBA...SASKATCHEWAN AND ONTARIO ***
                ***ONTARIO***

CITY           SKY/WX    TMP DP  RH WIND       PRES   REMARKS
GERALDTON      NOT AVBL
THUNDER BAY    PTSUNNY   57  52  82 NE6       29.99F
SIOUX LOOKOUT  PTSUNNY   70  63  78 SW8       29.84F
TORONTO        MOSUNNY   66  54  63 E2        30.25S
BIG TROUT LK   MOSUNNY   63  55  77 S7        29.67F
PICKLE LAKE    CLOUDY    66  55  68 S13       29.82F
DRYDEN         PTSUNNY   68  64  88 SW10      29.83F
KENORA         CLOUDY    68  64  88 SW8       29.83S
$$
                *** MANITOBA***

CITY           SKY/WX    TMP DP  RH WIND       PRES   REMARKS
BRANDON        PTSUNNY   64  61  88 W13       29.89R
DAUPHIN        SUNNY     64  54  68 W17G23    29.83R
ISLAND LAKE    MOSUNNY   68  63  83 W3        29.62S
PILOT MOUND      N/A     64  61  88 NW9         N/A
THE PAS        LGT RAIN  59  54  82 W17G31    29.64R
THOMPSON       MOSUNNY   57  57 100 SW6       29.49F
WINNIPEG       PTSUNNY   70  63  78 NW8       29.81R
LYNN LAKE      CLOUDY    55  54  94 SW8       29.42S
CHURCHILL      FOG       54  54 100 SE6       29.43R VSB 1/4
GILLAM         MOSUNNY   64  61  88 SW6       29.52S
$$
                ***SASKATCHEWAN***

CITY           SKY/WX    TMP DP  RH WIND       PRES   REMARKS
ESTEVAN        PTSUNNY   59  54  82 NW8       30.00R
KINDERSLEY     MOSUNNY   52  48  87 NW12      30.10R
LLOYDMINSTER   SUNNY     54  50  87 W13       30.06R
PRINCE ALBERT  PTSUNNY   59  50  72 NW20G28   29.88R
REGINA         SUNNY     57  52  82 W16       30.02R


USA.gov is the U.S. government's official web portal to all federal, state and local government web resources and services.